Temp
7 7 7 8 9 10 11 11 12 13 16 17 17 16 17 17 18 18 18 18 18 18 19 19 20 20 21 21 21 20 20 20 19 18 17 17 17 16
5 5 6 6 7 7 8 8 10 12 13 15 16 16 15 14 14 15 15 16 17 18 17 18 18 18 19 20 20 19 19 19 18 17 17 17 16 15
4 4 5 5 6 7 7 7 7 8 10 11 11 11 11 11 12 13 13 13 14 16 17 17 17 18 18 18 18 18 18 17 16 16 16 16 15 14
3 3 4 4 5 5 5 5 5 5 6 7 8 9 9 10 11 11 12 13 12 13 15 16 18 17 17 17 17 16 16 16 15 15 15 15 13 13
2 2 3 3 3 3 3 4 4 4 5 6 7 8 9 10 10 10 10 11 12 11 13 14 16 15 14 15 16 15 15 13 15 13 13 12 12 11
1 1 1 2 2 2 2 3 3 3 4 5 5 6 7 8 8 8 7 8 8 9 9 10 10 11 10 13 12 13 14 14 13 11 11 10 8 8
0 1 1 0 0 0 1 1 1 2 2 3 3 4 4 5 5 4 4 6 7 8 7 8 7 6 8 10 9 11 11 11 12 10 8 6 6 5
0 0 0 0 1 -0 -0 -0 -0 0 1 2 2 2 3 2 2 2 3 4 5 6 5 6 5 5 4 5 5 5 6 6 5 4 4 4 3 1
0 -0 0 0 -0 0 -0 -0 0 0 -0 -0 1 2 2 2 0 0 1 2 3 4 4 5 4 3 2 2 2 3 3 3 3 3 2 2 1 1
-1 -1 -2 -2 -1 -2 -2 -2 -2 -1 -1 -1 -0 -0 -0 -1 -1 -1 -0 1 2 4 4 3 2 1 1 1 0 1 1 1 1 1 1 0 -1 -0
-2 -2 -2 -2 -2 -2 -3 -3 -2 -2 -2 -2 -2 -2 -2 -3 -3 -2 -1 1 2 4 5 4 1 0 0 -0 -0 -0 0 0 0 0 -0 0 -1 -0
-2 -3 -3 -3 -2 -3 -3 -2 -2 -2 -2 -2 -2 -2 -2 -2 -3 -2 -2 -0 1 2 4 3 0 0 -1 -2 -1 -1 -1 -1 -1 -1 -1 -1 -1 -1
-3 -2 -2 -2 -2 -3 -3 -3 -2 -2 -2 -2 -2 -2 -2 -2 -1 -2 -1 -1 -0 1 3 4 1 -0 -0 -2 -2 -2 -2 -2 -1 -1 -2 -2 -1 -1
-3 -3 -2 -3 -3 -3 -2 -2 -2 -2 -2 -2 -2 -2 -2 -2 -1 -1 -1 -1 -0 -0 1 1 2 2 -0 -2 -2 -3 -3 -2 -1 -2 -2 -2 -2 -2
-3 -3 -3 -3 -3 -2 -2 -2 -2 -2 -2 -2 -2 -2 -1 -2 -2 -2 -1 -1 -0 -0 0 1 1 1 0 -1 -3 -4 -4 -4 -3 -2 -3 -3 -3 -2
-3 -3 -3 -3 -2 -2 -2 -2 -2 -1 -2 -2 -2 -2 -2 -2 -1 -2 -1 -1 -1 -1 -1 -0 -0 0 -1 -2 -3 -4 -4 -5 -4 -4 -4 -4 -3 -3
-4 -3 -2 -2 -2 -2 -2 -2 -2 -2 -2 -2 -2 -2 -2 -1 -1 -1 -1 -1 -1 -1 -3 -2 -1 -1 -2 -3 -4 -5 -5 -5 -5 -5 -4 -4 -4 -4
-4 -3 -2 -2 -2 -2 -2 -2 -2 -2 -2 -2 -2 -2 -2 -2 -2 -1 -1 -1 -1 -2 -3 -4 -3 -3 -4 -5 -4 -5 -5 -5 -5 -4 -4 -4 -4 -5
-3 -3 -3 -3 -3 -2 -2 -2 -2 -2 -2 -2 -2 -2 -2 -2 -2 -1 -1 -1 -1 -2 -3 -3 -3 -2 -2 -3 -5 -5 -4 -4 -4 -4 -4 -4 -4 -5
-3 -3 -3 -3 -3 -3 -3 -2 -2 -2 -2 -2 -2 -3 -2 -2 -2 -1 -1 -1 -1 -2 -2 -3 -2 -3 -3 -2 -3 -5 -4 -4 -4 -4 -5 -6 -6 -6
-3 -3 -3 -3 -3 -3 -3 -3 -3 -3 -3 -3 -2 -2 -2 -2 -2 -1 -1 -1 -2 -1 -1 -2 -4 -3 -4 -4 -4 -5 -5 -5 -4 -4 -5 -4 -4 -4
-3 -3 -3 -3 -3 -3 -3 -3 -3 -3 -3 -2 -2 -2 -2 -2 -2 -1 -1 -1 -1 -2 -3 -4 -4 -4 -3 -2 -4 -5 -5 -6 -6 -5 -5 -4 -3 -3
-4 -4 -3 -3 -3 -3 -3 -3 -3 -3 -3 -3 -3 -2 -2 -2 -2 -1 -1 -2 -3 -3 -3 -4 -4 -4 -4 -4 -4 -4 -5 -5 -5 -6 -7 -6 -5 -6
Height
784 780 773 774 775 776 769 767 768 764 757 749 746 739 737 734 732 729 725 722 719 719 718 716 714 712 709 709 711 712 713 714 717 719 720 725 728 729
785 784 785 784 781 780 769 760 762 757 746 744 741 741 738 728 726 722 718 714 711 708 710 709 704 700 698 696 697 700 701 703 703 706 711 713 716 719
790 788 786 783 777 771 765 761 762 757 751 742 745 737 731 726 720 717 708 706 704 697 701 700 696 694 689 684 683 685 689 691 693 695 700 703 706 708
793 789 786 781 775 770 766 765 761 760 753 744 740 732 728 726 717 710 703 696 696 694 691 687 687 682 681 678 674 677 674 686 685 690 692 695 697 702
793 790 786 783 778 773 770 764 761 755 751 745 738 732 724 723 714 704 701 694 691 686 680 677 674 673 674 669 665 669 664 681 676 686 680 683 686 690
794 789 786 783 779 774 768 765 758 756 751 741 735 731 727 722 714 701 699 694 686 681 678 673 671 671 672 655 665 666 656 653 674 682 677 682 686 686
794 790 784 779 774 772 768 763 761 755 748 740 734 729 725 718 713 704 702 694 686 681 678 675 672 671 672 662 667 656 661 659 657 670 674 678 681 686
791 787 782 778 772 769 766 763 760 755 749 743 736 730 723 718 713 707 701 695 689 682 681 678 675 669 672 662 663 664 660 660 663 674 678 678 681 689
789 783 778 774 769 765 760 757 754 750 747 742 734 729 723 719 714 706 700 698 695 688 685 679 677 677 674 674 672 670 669 668 672 673 682 678 683 687
785 780 775 770 767 763 757 751 747 743 739 736 731 726 722 717 712 707 701 694 690 687 684 681 677 677 679 677 677 673 675 678 678 680 683 683 686 691
781 777 772 767 762 759 753 747 742 738 734 730 725 720 715 711 706 700 695 692 686 681 680 678 680 678 680 679 679 679 681 682 682 683 687 683 687 691
776 770 766 762 756 753 748 741 733 729 725 719 715 711 707 703 699 697 692 688 686 679 672 674 677 678 680 682 680 680 684 684 686 685 686 686 685 692
770 763 758 754 749 745 741 734 727 720 716 711 707 702 698 695 692 689 687 685 682 678 676 672 674 676 678 681 683 688 688 687 685 686 690 689 693 698
766 759 753 747 742 736 731 725 720 715 710 705 701 696 692 688 685 683 681 679 677 675 672 673 672 671 672 678 683 687 686 686 688 690 693 693 699 702
762 753 746 740 734 728 723 718 714 710 705 701 696 692 689 684 681 678 676 673 672 670 668 668 669 670 670 673 679 683 686 691 693 694 696 699 702 704
755 747 740 734 728 723 717 713 710 706 701 697 693 689 685 681 677 675 672 669 667 666 665 664 665 668 669 673 676 683 688 691 695 698 699 702 705 707
749 742 735 729 723 718 713 709 705 701 697 693 689 685 681 678 674 672 669 667 666 665 666 666 665 667 670 675 680 685 689 694 698 701 703 705 708 709
744 737 731 725 720 714 709 704 700 696 693 689 685 682 678 675 672 669 667 665 664 664 666 667 667 669 673 680 683 687 692 697 702 705 707 709 712 714
741 734 728 722 716 710 705 700 695 692 688 684 681 678 675 672 669 666 664 663 662 663 665 667 668 669 671 679 691 693 695 700 705 709 711 713 716 721
737 731 724 718 712 706 701 696 691 687 683 680 677 674 672 669 666 664 662 661 661 663 666 669 670 672 675 677 686 698 701 704 708 712 716 719 723 726
733 727 721 714 708 702 696 691 687 682 679 676 673 670 668 666 664 662 660 660 661 664 667 671 674 675 678 682 690 701 707 710 714 717 720 722 726 729
729 722 715 708 702 696 690 686 681 678 674 671 669 667 665 663 661 660 659 660 662 665 670 675 678 681 684 686 695 703 711 716 719 721 723 725 727 730
725 718 710 703 697 691 685 680 676 673 670 668 666 664 662 661 659 659 660 662 665 669 674 678 682 687 691 695 699 707 714 719 724 727 730 731 731 734
Wind_Speed
21 22 21 20 20 18 19 17 12 10 13 25 19 22 26 28 33 30 24 25 30 39 40 39 39 37 34 37 38 39 40 41 40 38 36 33 31 34
20 19 17 17 18 22 20 20 20 20 12 25 28 29 26 30 30 32 35 33 28 28 37 40 38 38 41 39 37 39 41 43 41 39 35 32 33 31
19 20 19 19 21 21 21 19 21 20 14 21 25 23 28 26 26 28 30 33 37 32 28 30 37 43 41 37 35 37 40 43 41 37 36 33 32 30
21 19 20 22 21 17 20 20 20 23 22 21 26 22 23 26 26 29 31 32 35 40 41 36 39 35 45 44 33 35 35 40 36 36 34 32 29 29
21 20 20 20 19 20 21 19 20 23 23 22 23 23 22 23 24 22 26 27 28 37 36 37 34 30 33 31 32 40 28 21 20 31 32 26 32 35
20 19 19 19 19 21 21 21 22 24 24 22 20 20 20 22 20 18 23 26 30 31 25 22 22 22 19 9 21 17 15 12 24 28 31 34 33 32
21 20 19 21 19 21 20 21 22 23 23 22 21 19 16 17 17 18 20 25 25 19 28 26 21 15 14 14 18 14 22 27 25 35 37 32 27 21
24 23 22 21 19 21 20 21 21 21 24 22 22 20 22 21 19 21 20 16 6 14 29 27 20 16 16 10 8 12 22 25 26 19 18 19 16 15
24 23 24 20 22 22 24 24 22 22 20 21 24 23 25 24 25 25 19 17 15 23 26 13 14 7 8 4 2 6 9 13 13 15 12 14 15 17
22 22 22 23 22 25 26 24 23 21 22 23 23 25 25 27 26 24 25 23 23 20 12 4 4 5 3 5 4 7 8 8 9 10 12 15 18 17
20 22 22 26 26 30 28 27 26 25 23 25 27 29 26 26 25 23 19 15 7 5 9 3 2 3 2 4 5 6 5 8 7 9 12 16 20 17
24 23 25 27 33 32 31 30 30 27 28 30 29 28 27 23 24 16 17 16 11 6 6 7 6 5 2 2 6 5 5 6 8 9 10 14 19 18
28 28 28 30 34 34 35 32 31 34 31 29 27 25 24 22 22 21 18 18 15 14 16 5 7 7 4 5 6 6 6 6 5 7 10 15 14 13
28 29 31 34 38 35 33 30 29 30 25 23 22 22 22 21 22 22 21 21 22 22 23 17 7 12 7 5 4 8 8 11 11 15 15 14 11 9
29 33 36 37 35 31 28 29 29 22 20 19 19 20 23 23 24 22 19 19 17 16 15 14 18 10 8 7 6 8 9 8 13 16 17 14 13 11
30 31 33 32 29 26 25 23 22 21 21 21 21 23 23 21 18 18 17 18 14 7 4 6 10 8 8 7 10 13 15 6 13 15 17 16 15 15
36 29 26 24 24 24 23 22 22 21 21 20 20 19 20 19 17 16 16 15 9 3 4 9 10 12 14 16 13 17 17 15 13 15 19 19 18 18
29 23 23 23 23 24 23 23 21 21 20 21 20 19 18 17 17 16 15 12 9 7 9 15 23 23 17 19 17 19 16 16 16 17 17 20 19 18
21 22 23 23 25 24 24 23 22 22 22 21 19 19 18 18 16 15 14 9 6 7 12 16 11 8 6 5 7 11 17 16 17 15 14 16 19 16
23 23 24 25 25 26 25 24 24 22 21 20 19 19 18 17 14 13 12 8 5 6 8 9 6 6 9 6 9 12 14 17 17 19 20 23 26 22
26 26 26 26 26 26 26 26 25 24 23 22 20 18 18 16 13 13 11 6 8 9 10 9 9 12 23 25 17 19 17 17 17 19 18 17 15 14
28 28 28 28 28 27 27 25 23 22 19 17 16 17 18 15 14 11 4 7 9 13 16 16 16 16 18 24 22 25 23 22 20 16 12 9 4 4
30 31 31 30 29 28 26 24 22 21 17 15 14 17 17 13 9 3 8 12 15 18 19 18 18 20 22 25 26 25 26 21 21 26 27 19 21 25
Wind_Direction
357 351 346 326 324 289 292 283 267 284 280 282 262 249 259 268 280 286 291 299 299 283 276 273 276 271 275 277 271 262 253 249 248 244 243 245 252 254
355 351 343 336 331 319 321 317 302 269 275 277 286 288 283 281 285 286 282 294 291 300 283 274 270 270 272 271 271 263 251 246 239 239 240 243 248 247
348 342 336 334 335 336 336 330 320 323 304 303 297 310 320 311 300 294 287 285 287 282 295 296 284 272 268 266 267 261 250 240 237 236 234 239 240 239
345 343 336 337 336 347 341 332 329 323 318 311 315 312 308 305 305 302 296 289 281 284 281 287 285 291 275 277 268 258 237 241 239 237 235 238 231 214
340 337 334 336 334 338 333 327 323 320 314 310 312 315 308 308 314 320 325 310 291 296 291 284 289 288 276 271 270 247 240 243 275 268 231 212 202 193
336 332 327 326 325 325 326 321 321 317 312 311 312 312 318 318 320 339 339 335 333 337 300 290 288 290 268 293 235 226 216 266 236 219 205 190 184 190
328 326 324 321 327 321 322 319 321 320 321 317 315 315 325 335 339 338 331 331 335 353 350 336 313 308 284 241 252 232 219 204 206 204 188 180 178 169
323 323 321 319 318 323 320 321 311 311 311 310 309 308 312 324 326 330 328 342 331 337 344 331 328 321 319 323 284 216 187 175 162 161 165 164 150 146
320 321 321 319 321 320 319 316 312 310 307 304 304 306 309 313 316 314 314 313 297 305 319 312 339 347 4 31 117 162 140 142 150 153 158 143 144 144
320 320 319 318 318 320 321 317 314 310 309 306 302 301 302 306 303 297 295 294 297 307 290 279 326 12 29 68 77 114 124 125 138 136 143 133 139 143
318 318 315 314 314 319 315 310 307 305 304 305 302 300 300 303 303 298 289 290 294 278 308 238 277 130 115 112 116 112 130 140 130 141 154 142 149 144
319 315 313 312 317 317 311 308 303 303 302 305 307 307 308 303 310 298 290 279 278 291 222 179 185 157 82 126 126 132 144 133 149 152 151 149 146 143
316 315 314 314 316 312 313 304 297 303 301 299 299 299 298 302 308 309 304 291 277 259 278 255 204 178 146 138 142 160 153 116 97 121 134 143 147 147
309 309 311 310 314 315 311 308 311 310 301 295 291 293 294 296 303 312 304 293 289 278 269 273 257 204 158 131 139 143 112 110 118 133 135 132 138 135
309 308 311 311 310 307 304 310 311 305 301 298 296 293 296 298 302 307 307 301 293 281 271 254 235 231 189 138 139 146 123 100 128 129 128 127 123 118
317 313 309 309 308 308 308 309 306 307 304 299 297 298 302 301 297 301 299 306 297 276 288 232 220 212 134 137 139 134 135 125 128 126 118 109 110 113
318 311 309 311 310 312 310 309 307 306 306 300 300 298 299 300 297 299 300 300 253 220 122 116 143 146 130 129 104 124 121 115 123 124 117 103 96 102
315 310 311 311 309 309 309 307 306 304 305 306 304 298 297 297 299 299 295 285 251 196 158 142 131 114 97 72 110 116 117 119 121 118 113 107 92 87
317 312 309 308 308 307 305 304 304 304 306 304 298 296 293 297 293 296 294 281 245 184 169 167 167 145 114 108 93 117 125 125 123 109 103 100 100 91
325 315 311 308 306 306 306 304 303 303 303 304 300 299 296 290 290 291 291 268 212 156 151 163 151 113 121 125 122 106 126 127 125 114 105 101 101 97
319 316 312 308 307 305 302 301 300 298 299 295 297 297 299 290 290 290 289 260 159 142 134 112 111 144 120 115 106 105 96 115 118 120 120 111 103 99
319 315 313 310 307 304 302 301 299 301 299 298 296 300 299 296 294 296 252 158 137 123 112 112 115 117 123 118 113 114 109 105 107 104 101 100 118 112
316 314 313 311 310 308 305 300 298 298 298 294 295 299 301 298 303 229 152 125 125 121 121 113 108 111 114 115 113 112 111 104 99 87 79 91 102 106